Wind from 089

Air temperature 10.0° C
Dewpoint 8.9° C

Last reported at 2014-Apr-19 01:41 UTC.
Time now 2014-Apr-19 02:08 UTC

Location: N 42°43' W 006°39'.
View on Google Maps.

See reports from other nearby stations

Tides Stations Pressure Air Temp Water Temp Dewpoint Dewpoint depression Visibility Wind Speed Wind Dir Waves Ship positions

  
sailing weather and tide predictions

EA1AML-1 Vega de Espinareda ES weather

date/time (UTC)wind fromknots sea level pressurealtimeterstation pressurevisibilityair tempwater tempwave heightnotes
2014-Apr-19 01:41 089 10.0
2014-Apr-19 01:37 089 10.0
2014-Apr-19 01:31 089 10.0
2014-Apr-19 01:27 089 10.0
2014-Apr-19 01:21 089 10.6
2014-Apr-19 01:16 089 10.6
2014-Apr-19 01:11 089 10.6
2014-Apr-19 01:06 089 0 gusting 0 10.6
2014-Apr-19 01:01 089 11.1
2014-Apr-19 00:56 089 0 gusting 1 11.1
2014-Apr-19 00:51 089 11.1
2014-Apr-19 00:46 089 11.1
2014-Apr-19 00:41 089 11.7
2014-Apr-19 00:36 089 11.7
2014-Apr-19 00:31 089 11.7
2014-Apr-19 00:27 089 11.7
2014-Apr-19 00:21 089 11.7
2014-Apr-19 00:16 089 11.7
2014-Apr-19 00:11 089 12.2
2014-Apr-19 00:06 089 12.2
2014-Apr-19 00:01 089 12.2
2014-Apr-18 23:57 089 0 gusting 2 12.2
2014-Apr-18 23:51 089 0 gusting 2 12.2
2014-Apr-18 23:47 089 0 gusting 2 12.8
2014-Apr-18 23:41 089 12.8
2014-Apr-18 23:36 089 12.8
2014-Apr-18 23:32 089 12.8
2014-Apr-18 23:27 089 12.8
2014-Apr-18 23:21 089 0 gusting 1 13.3
2014-Apr-18 23:17 089 13.3
2014-Apr-18 23:11 089 0 gusting 1 13.3
2014-Apr-18 23:06 089 13.3
2014-Apr-18 23:02 089 0 gusting 1 13.3
2014-Apr-18 22:56 089 0 gusting 1 13.3
2014-Apr-18 22:52 089 0 gusting 1 13.9
2014-Apr-18 22:47 089 0 gusting 2 13.9
2014-Apr-18 22:42 089 1 gusting 2 13.9
2014-Apr-18 22:36 086 1 gusting 2 14.4
2014-Apr-18 22:32 084 14.4
2014-Apr-18 22:21 084 15.0
2014-Apr-18 22:16 084 15.0
2014-Apr-18 22:11 084 0 gusting 2 15.6
2014-Apr-18 22:06 084 16.1
2014-Apr-18 22:02 084 0 gusting 1 16.1
2014-Apr-18 21:56 081 16.7
2014-Apr-18 21:51 081 16.7
2014-Apr-18 21:46 081 16.7
2014-Apr-18 21:41 081 0 gusting 2 17.2
2014-Apr-18 21:37 081 0 gusting 1 17.2
2014-Apr-18 21:31 231 0 gusting 1 17.2
2014-Apr-18 21:26 231 0 gusting 1 17.8
2014-Apr-18 21:21 231 17.8
2014-Apr-18 21:16 231 0 gusting 2 17.8
2014-Apr-18 21:12 231 17.8
2014-Apr-18 21:07 119 17.8
2014-Apr-18 21:02 119 1 gusting 2 17.8
2014-Apr-18 20:57 119 1 gusting 2 17.8
2014-Apr-18 20:51 119 0 gusting 1 18.3
2014-Apr-18 20:46 119 18.3
2014-Apr-18 20:41 119 0 gusting 2 18.3
2014-Apr-18 20:36 119 0 gusting 2 18.9
2014-Apr-18 20:31 119 0 gusting 1 18.9
2014-Apr-18 20:26 124 0 gusting 1 19.4
2014-Apr-18 20:21 124 19.4
2014-Apr-18 20:16 124 1 gusting 3 19.4
2014-Apr-18 20:11 124 0 gusting 3 20.0
2014-Apr-18 20:06 091 1 gusting 5 20.0
2014-Apr-18 20:01 110 2 gusting 6 20.0
2014-Apr-18 19:56 088 1 gusting 6 19.4
2014-Apr-18 19:52 125 1 gusting 3 20.0
2014-Apr-18 19:47 138 1 gusting 4 20.0
2014-Apr-18 19:42 111 1 gusting 6 20.0
2014-Apr-18 19:36 084 3 gusting 6 20.0
2014-Apr-18 19:31 059 2 gusting 6 20.0
2014-Apr-18 19:27 058 3 gusting 6 20.0
2014-Apr-18 19:21 079 1 gusting 10 20.6
2014-Apr-18 19:16 048 5 gusting 10 20.6
2014-Apr-18 19:11 054 6 gusting 8 20.6
2014-Apr-18 19:06 338 3 gusting 7 20.6
2014-Apr-18 19:02 021 4 gusting 7 21.1
2014-Apr-18 18:57 005 0 gusting 6 21.1
2014-Apr-18 18:51 030 3 gusting 7 21.1
2014-Apr-18 18:46 046 4 gusting 7 21.1
2014-Apr-18 18:41 043 2 gusting 6 21.1
2014-Apr-18 18:37 350 2 gusting 6 21.1
2014-Apr-18 18:31 086 2 gusting 9 21.1
2014-Apr-18 18:26 005 4 gusting 9 21.1
2014-Apr-18 18:21 075 6 gusting 9 21.7
2014-Apr-18 18:16 050 6 gusting 8 21.7
2014-Apr-18 18:11 061 3 gusting 10 21.7
2014-Apr-18 18:07 042 6 gusting 10 22.2
2014-Apr-18 18:01 351 5 gusting 11 22.2
2014-Apr-18 17:56 315 6 gusting 15 22.8
2014-Apr-18 17:51 009 8 gusting 15 22.8
2014-Apr-18 17:46 309 8 gusting 12 23.3
2014-Apr-18 17:41 265 3 gusting 12 23.3
2014-Apr-18 17:36 293 6 gusting 12 23.3
2014-Apr-18 17:32 259 4 gusting 6 23.9
2014-Apr-18 17:26 265 2 gusting 3 23.9
2014-Apr-18 17:21 209 23.9
2014-Apr-18 17:16 064 0 gusting 3 23.9
2014-Apr-18 17:11 071 23.9
2014-Apr-18 17:06 080 2 gusting 7 23.9
2014-Apr-18 17:01 086 4 gusting 6 23.9
2014-Apr-18 16:56 069 4 gusting 6 24.4
2014-Apr-18 16:51 074 1 gusting 3 25.0
2014-Apr-18 16:46 015 25.0
2014-Apr-18 16:41 015 0 gusting 4 24.4
2014-Apr-18 16:36 019 2 gusting 4 24.4
2014-Apr-18 16:31 066 2 gusting 5 25.0
2014-Apr-18 16:27 005 1 gusting 6 25.0
2014-Apr-18 16:21 009 3 gusting 6 25.0
2014-Apr-18 16:16 338 2 gusting 4 25.0
2014-Apr-18 16:11 327 3 gusting 5 25.0
2014-Apr-18 16:02 305 2 gusting 6 25.0
2014-Apr-18 15:56 355 4 gusting 6 25.0
2014-Apr-18 15:52 344 5 gusting 8 25.6
2014-Apr-18 15:47 005 3 gusting 8 25.6
2014-Apr-18 15:41 355 5 gusting 8 25.6
2014-Apr-18 15:37 027 2 gusting 8 26.1
2014-Apr-18 15:31 027 6 gusting 10 26.1
2014-Apr-18 15:26 360 6 gusting 10 26.7
2014-Apr-18 15:22 355 6 gusting 9 26.7
2014-Apr-18 15:17 022 2 gusting 6 26.7
2014-Apr-18 15:11 041 4 gusting 6 26.7
2014-Apr-18 15:07 321 2 gusting 6 26.1
2014-Apr-18 15:01 121 2 gusting 6 26.1
2014-Apr-18 14:57 047 2 gusting 7 26.1
2014-Apr-18 14:52 005 5 gusting 7 26.1
2014-Apr-18 14:46 042 5 gusting 7 26.1
2014-Apr-18 14:41 242 4 gusting 11 26.1
2014-Apr-18 14:37 252 0 gusting 6 26.7
2014-Apr-18 14:31 254 4 gusting 6 26.7
2014-Apr-18 14:26 267 3 gusting 6 26.7
2014-Apr-18 14:21 273 3 gusting 6 26.7
2014-Apr-18 14:16 233 2 gusting 7 26.7
2014-Apr-18 14:12 248 3 gusting 8 26.7
2014-Apr-18 14:06 302 5 gusting 8 26.7
2014-Apr-18 14:02 284 4 gusting 11 26.7
2014-Apr-18 13:57 274 6 gusting 11 27.2
2014-Apr-18 13:51 228 2 gusting 9 27.8
2014-Apr-18 13:46 236 4 gusting 9 27.8
2014-Apr-18 13:42 199 3 gusting 6 27.8
2014-Apr-18 13:36 259 3 gusting 6 27.8
2014-Apr-18 13:32 232 3 gusting 6 27.2
2014-Apr-18 13:26 275 1 gusting 7 27.2
2014-Apr-18 13:21 227 4 gusting 6 26.7
2014-Apr-18 13:16 115 1 gusting 6 26.7
2014-Apr-18 13:11 223 2 gusting 6 27.2
2014-Apr-18 13:06 253 1 gusting 9 27.2
2014-Apr-18 13:01 183 4 gusting 6 27.2
2014-Apr-18 12:56 206 0 gusting 6 27.2
2014-Apr-18 12:51 250 2 gusting 6 27.2
2014-Apr-18 12:46 234 3 gusting 8 26.7
2014-Apr-18 12:42 211 4 gusting 8 26.7
2014-Apr-18 12:36 240 2 gusting 7 26.7
2014-Apr-18 12:31 267 2 gusting 7 26.7
2014-Apr-18 12:26 216 2 gusting 8 26.7
2014-Apr-18 12:22 247 3 gusting 7 26.7
2014-Apr-18 12:16 278 1 gusting 5 26.7
2014-Apr-18 12:11 195 1 gusting 7 26.1
2014-Apr-18 12:06 253 0 gusting 7 25.6
2014-Apr-18 12:02 286 1 gusting 8 25.6
2014-Apr-18 11:56 307 5 gusting 8 25.6
2014-Apr-18 11:51 248 3 gusting 7 25.6
2014-Apr-18 11:46 281 6 gusting 7 25.6
2014-Apr-18 11:42 277 3 gusting 7 25.6
2014-Apr-18 11:36 281 1 gusting 5 25.6
2014-Apr-18 11:31 234 3 gusting 5 25.0
2014-Apr-18 11:26 260 1 gusting 4 25.0
2014-Apr-18 11:21 057 0 gusting 2 24.4
2014-Apr-18 11:16 057 1 gusting 2 24.4
2014-Apr-18 11:12 057 1 gusting 3 23.9
2014-Apr-18 11:07 052 1 gusting 3 24.4
2014-Apr-18 11:01 281 1 gusting 2 24.4
2014-Apr-18 10:56 017 0 gusting 3 24.4
2014-Apr-18 10:52 005 0 gusting 3 23.9
2014-Apr-18 10:47 261 0 gusting 2 23.9
2014-Apr-18 10:41 261 23.3
2014-Apr-18 10:36 261 0 gusting 1 23.3
2014-Apr-18 10:32 261 0 gusting 2 23.3
2014-Apr-18 10:27 261 0 gusting 2 22.8
2014-Apr-18 10:21 261 22.2
2014-Apr-18 10:16 261 0 gusting 2 22.2
2014-Apr-18 10:11 261 0 gusting 2 22.2
2014-Apr-18 10:06 261 0 gusting 3 21.7
2014-Apr-18 10:02 261 1 gusting 3 21.7
2014-Apr-18 09:57 262 0 gusting 2 21.1
2014-Apr-18 09:51 246 1 gusting 2 21.1
2014-Apr-18 09:46 109 0 gusting 2 20.6
2014-Apr-18 09:42 109 0 gusting 1 20.6
2014-Apr-18 09:36 113 20.0
2014-Apr-18 09:32 113 0 gusting 1 19.4
2014-Apr-18 09:27 113 0 gusting 1 18.9
2014-Apr-18 09:21 113 0 gusting 1 18.9
2014-Apr-18 09:17 113 0 gusting 2 18.3
2014-Apr-18 09:11 113 18.3
2014-Apr-18 09:06 113 1 gusting 2 17.8
2014-Apr-18 09:02 116 17.2
2014-Apr-18 08:57 116 0 gusting 1 17.2
2014-Apr-18 08:51 116 0 gusting 1 16.7
2014-Apr-18 08:47 116 0 gusting 1 16.1
2014-Apr-18 08:41 116 0 gusting 1 16.1
2014-Apr-18 08:36 115 0 gusting 1 15.6
2014-Apr-18 08:32 115 0 gusting 1 15.6
2014-Apr-18 08:26 115 0 gusting 1 15.0
2014-Apr-18 08:22 115 0 gusting 1 15.0
2014-Apr-18 08:16 115 14.4
2014-Apr-18 08:11 115 14.4
2014-Apr-18 08:06 115 14.4
2014-Apr-18 08:01 115 13.9
2014-Apr-18 07:56 115 0 gusting 1 13.3
2014-Apr-18 07:52 115 12.8
2014-Apr-18 07:46 115 12.8
2014-Apr-18 07:41 115 12.2
2014-Apr-18 07:36 115 0 gusting 1 11.7
2014-Apr-18 07:31 115 0 gusting 1 11.1
2014-Apr-18 07:26 115 11.1
2014-Apr-18 07:21 115 11.1
2014-Apr-18 07:16 115 10.6
2014-Apr-18 07:12 115 1 gusting 1 10.6
2014-Apr-18 07:06 115 0 gusting 1 10.0
2014-Apr-18 07:01 115 0 gusting 1 10.0
2014-Apr-18 06:56 115 9.4
2014-Apr-18 06:51 115 9.4
2014-Apr-18 06:47 115 8.9
2014-Apr-18 06:41 115 0 gusting 1 8.9
2014-Apr-18 06:36 115 0 gusting 1 8.9
2014-Apr-18 06:31 115 8.9
2014-Apr-18 06:26 115 1 gusting 2 8.3
2014-Apr-18 06:22 115 0 gusting 2 8.3
2014-Apr-18 06:16 115 1 gusting 2 8.3
2014-Apr-18 06:11 115 0 gusting 1 8.3
2014-Apr-18 06:07 115 8.3
2014-Apr-18 06:01 115 8.3
2014-Apr-18 05:57 115 8.3
2014-Apr-18 05:51 115 8.3
2014-Apr-18 05:46 115 0 gusting 2 8.3
2014-Apr-18 05:41 116 8.3
2014-Apr-18 05:36 116 1 gusting 3 8.3
2014-Apr-18 05:31 116 0 gusting 2 8.3
2014-Apr-18 05:27 116 0 gusting 1 8.3
2014-Apr-18 05:21 116 0 gusting 1 8.3
2014-Apr-18 05:16 116 8.9
2014-Apr-18 05:11 116 0 gusting 2 8.9
2014-Apr-18 05:06 116 0 gusting 2 8.9
2014-Apr-18 05:02 117 0 gusting 1 8.9
2014-Apr-18 04:57 117 8.9
2014-Apr-18 04:51 117 8.9
2014-Apr-18 04:46 117 0 gusting 1 8.9
2014-Apr-18 04:42 117 0 gusting 2 9.4
2014-Apr-18 04:36 117 0 gusting 1 9.4
2014-Apr-18 04:31 117 9.4
2014-Apr-18 04:26 117 2 gusting 3 9.4
2014-Apr-18 04:21 105 1 gusting 3 9.4
2014-Apr-18 04:16 107 0 gusting 1 9.4
2014-Apr-18 04:12 107 0 gusting 1 9.4
2014-Apr-18 04:06 107 9.4
2014-Apr-18 04:02 107 0 gusting 2 9.4
2014-Apr-18 03:57 107 0 gusting 2 10.0
2014-Apr-18 03:51 108 0 gusting 2 10.0
2014-Apr-18 03:46 126 0 gusting 1 10.0
2014-Apr-18 03:41 126 0 gusting 2 10.6
2014-Apr-18 03:36 126 1 gusting 2 10.0
2014-Apr-18 03:31 126 0 gusting 3 10.0
2014-Apr-18 03:27 126 10.0
2014-Apr-18 03:21 099 2 gusting 4 10.0
2014-Apr-18 03:16 094 1 gusting 2 10.0
2014-Apr-18 03:11 094 0 gusting 2 10.6
2014-Apr-18 03:06 094 10.6
2014-Apr-18 03:02 094 0 gusting 4 10.6
2014-Apr-18 02:57 098 1 gusting 4 10.6
2014-Apr-18 02:51 121 10.6
2014-Apr-18 02:46 121 10.6
2014-Apr-18 02:41 121 1 gusting 3 10.6
2014-Apr-18 02:37 098 1 gusting 2 11.1
2014-Apr-18 02:31 105 0 gusting 4 11.1
2014-Apr-18 02:26 104 2 gusting 3 11.1
2014-Apr-18 02:21 097 11.7
2014-Apr-18 02:16 097 11.7
2014-Apr-18 02:12 097 0 gusting 2 11.7
2014-Apr-18 02:07 097 1 gusting 2 11.7
2014-Apr-18 02:01 097 0 gusting 1 11.7
2014-Apr-18 01:56 097 0 gusting 2 11.7
2014-Apr-18 01:51 097 0 gusting 2 11.7
2014-Apr-18 01:46 092 12.2
2014-Apr-18 01:42 092 0 gusting 2 12.2
2014-Apr-18 01:36 092 0 gusting 2 12.2
2014-Apr-18 01:32 092 0 gusting 2 12.2
2014-Apr-18 01:27 092 0 gusting 1 12.2
2014-Apr-18 01:21 092 12.2
2014-Apr-18 01:17 092 0 gusting 2 12.2
2014-Apr-18 01:11 112 1 gusting 1 12.2
2014-Apr-18 01:07 115 12.8
2014-Apr-18 01:01 115 12.8
2014-Apr-18 00:56 101 1 gusting 4 12.8
2014-Apr-18 00:52 103 1 gusting 2 12.8
2014-Apr-18 00:47 101 0 gusting 1 13.3
2014-Apr-18 00:41 101 13.3
2014-Apr-18 00:36 101 1 gusting 2 13.3
2014-Apr-18 00:32 101 0 gusting 2 13.3
2014-Apr-18 00:27 101 1 gusting 2 13.3
2014-Apr-18 00:21 098 1 gusting 2 13.9
2014-Apr-18 00:16 098 0 gusting 2 13.9
2014-Apr-18 00:12 098 0 gusting 2 13.9
2014-Apr-18 00:06 098 13.9
2014-Apr-18 00:02 098 13.9
2014-Apr-17 23:56 098 13.9
2014-Apr-17 23:51 098 0 gusting 1 13.9
2014-Apr-17 23:47 098 13.9
2014-Apr-17 23:41 098 13.9
2014-Apr-17 23:37 098 0 gusting 2 13.9
2014-Apr-17 23:31 098 13.9
2014-Apr-17 23:26 098 14.4
2014-Apr-17 23:22 098 14.4
2014-Apr-17 23:16 098 0 gusting 2 14.4
2014-Apr-17 23:11 098 14.4
2014-Apr-17 23:06 098 0 gusting 2 15.0
2014-Apr-17 23:01 098 0 gusting 4 15.6
2014-Apr-17 22:56 109 2 gusting 4 15.6
2014-Apr-17 22:51 103 2 gusting 5 15.0
2014-Apr-17 22:46 128 3 gusting 5 15.0
2014-Apr-17 22:41 102 2 gusting 4 15.0
2014-Apr-17 22:36 110 1 gusting 5 15.0
2014-Apr-17 22:31 121 2 gusting 5 15.0
2014-Apr-17 22:26 099 2 gusting 6 15.0
2014-Apr-17 22:22 102 3 gusting 6 15.6
2014-Apr-17 22:17 091 1 gusting 2 15.6
2014-Apr-17 22:11 117 0 gusting 4 15.6
2014-Apr-17 22:06 115 2 gusting 4 15.6
2014-Apr-17 22:02 111 1 gusting 2 16.1
2014-Apr-17 21:56 099 1 gusting 2 16.7
2014-Apr-17 21:51 071 1 gusting 2 17.2
2014-Apr-17 21:46 071 1 gusting 2 17.8
2014-Apr-17 21:42 071 0 gusting 2 17.8
2014-Apr-17 21:36 325 18.3
2014-Apr-17 21:31 305 18.3
2014-Apr-17 21:27 305 18.3
2014-Apr-17 21:22 305 0 gusting 1 18.9
2014-Apr-17 21:16 305 18.9
2014-Apr-17 21:11 305 18.9
2014-Apr-17 21:06 305 18.9
2014-Apr-17 21:02 305 18.9
2014-Apr-17 20:57 305 18.9
2014-Apr-17 20:51 305 19.4
2014-Apr-17 20:46 305 0 gusting 2 19.4
2014-Apr-17 20:42 305 0 gusting 2 19.4
2014-Apr-17 20:36 029 19.4
2014-Apr-17 20:32 294 1 gusting 3 20.0
2014-Apr-17 20:27 272 0 gusting 2 20.0
2014-Apr-17 20:21 272 0 gusting 2 20.0
2014-Apr-17 20:16 272 0 gusting 1 20.0
2014-Apr-17 20:01 272 0 gusting 1 20.6
2014-Apr-17 19:56 272 21.1
2014-Apr-17 19:52 272 1 gusting 2 21.1
2014-Apr-17 19:46 272 0 gusting 1 21.1
2014-Apr-17 19:42 272 0 gusting 2 21.1
2014-Apr-17 19:37 272 0 gusting 3 21.1
2014-Apr-17 19:31 280 0 gusting 3 21.7
2014-Apr-17 19:26 299 0 gusting 3 21.7
2014-Apr-17 19:21 248 1 gusting 3 22.2
2014-Apr-17 19:16 033 22.2
2014-Apr-17 19:12 033 0 gusting 2 22.8
2014-Apr-17 19:07 033 22.8
2014-Apr-17 19:01 044 0 gusting 2 22.8
2014-Apr-17 18:56 044 1 gusting 6 23.3
2014-Apr-17 18:51 013 2 gusting 6 23.3
2014-Apr-17 18:46 055 2 gusting 6 23.9
2014-Apr-17 18:42 044 3 gusting 6 23.9
2014-Apr-17 18:37 048 3 gusting 8 24.4
2014-Apr-17 18:31 065 4 gusting 7 24.4
2014-Apr-17 18:26 089 5 gusting 7 25.0
2014-Apr-17 18:22 065 4 gusting 6 25.0
2014-Apr-17 18:17 030 2 gusting 6 25.6
2014-Apr-17 18:11 031 3 gusting 6 26.1
2014-Apr-17 18:06 049 2 gusting 6 26.1
2014-Apr-17 18:02 069 2 gusting 6 26.7
2014-Apr-17 17:57 080 1 gusting 3 27.2
2014-Apr-17 17:51 234 0 gusting 3 27.8
2014-Apr-17 17:46 234 0 gusting 5 27.2
2014-Apr-17 17:42 196 1 gusting 5 27.2
2014-Apr-17 17:37 144 2 gusting 4 27.2
2014-Apr-17 17:32 160 1 gusting 4 27.8
2014-Apr-17 17:27 196 0 gusting 3 27.8
2014-Apr-17 17:21 204 1 gusting 5 27.8
2014-Apr-17 17:16 238 2 gusting 5 27.8
2014-Apr-17 17:11 258 0 gusting 5 27.8
2014-Apr-17 17:06 248 3 gusting 6 27.8
2014-Apr-17 17:01 269 4 gusting 6 27.8
2014-Apr-17 16:56 287 3 gusting 5 27.8
2014-Apr-17 16:52 240 2 gusting 5 27.8
2014-Apr-17 16:46 279 3 gusting 6 27.8
2014-Apr-17 16:42 242 3 gusting 6 27.8
2014-Apr-17 16:37 269 3 gusting 6 27.8
2014-Apr-17 16:31 250 3 gusting 6 27.8
2014-Apr-17 16:26 305 3 gusting 6 27.8
2014-Apr-17 16:21 249 4 gusting 6 27.8
2014-Apr-17 16:16 278 4 gusting 6 27.8
2014-Apr-17 16:12 266 4 gusting 6 27.8
2014-Apr-17 16:07 270 2 gusting 6 27.2
2014-Apr-17 16:02 046 1 gusting 6 26.7
2014-Apr-17 15:56 042 2 gusting 5 27.2
2014-Apr-17 15:51 101 1 gusting 5 27.8
2014-Apr-17 15:46 269 1 gusting 6 27.8
2014-Apr-17 15:42 264 3 gusting 6 27.8
2014-Apr-17 15:36 243 2 gusting 6 27.8
2014-Apr-17 15:31 248 4 gusting 7 27.8
2014-Apr-17 15:26 276 4 gusting 7 27.8
2014-Apr-17 15:21 244 1 gusting 6 27.8
2014-Apr-17 15:16 261 3 gusting 7 27.2
2014-Apr-17 15:12 281 6 gusting 8 27.2
2014-Apr-17 15:06 284 2 gusting 9 27.2
2014-Apr-17 15:01 236 6 gusting 9 27.8
2014-Apr-17 14:56 162 1 gusting 6 28.3
2014-Apr-17 14:52 224 3 gusting 6 28.3
2014-Apr-17 14:47 080 1 gusting 4 28.3
2014-Apr-17 14:41 194 2 gusting 6 27.8
2014-Apr-17 14:37 282 1 gusting 6 27.8
2014-Apr-17 14:31 266 2 gusting 6 27.8
2014-Apr-17 14:26 254 1 gusting 6 27.8
2014-Apr-17 14:21 279 4 gusting 7 27.2
2014-Apr-17 14:16 245 3 gusting 7 26.7
2014-Apr-17 14:11 255 4 gusting 6 27.2
2014-Apr-17 14:06 275 3 gusting 6 27.2
2014-Apr-17 14:01 236 2 gusting 7 26.7
2014-Apr-17 13:56 257 5 gusting 8 26.7
2014-Apr-17 13:52 259 4 gusting 8 27.2
2014-Apr-17 13:47 285 4 gusting 7 26.7
2014-Apr-17 13:41 271 4 gusting 7 27.2
2014-Apr-17 13:36 260 4 gusting 9 26.7
2014-Apr-17 13:32 260 5 gusting 9 26.7
2014-Apr-17 13:26 230 4 gusting 10 26.1
2014-Apr-17 13:22 251 6 gusting 10 26.7
2014-Apr-17 13:17 205 4 gusting 6 26.7
2014-Apr-17 13:11 270 1 gusting 9 26.7
2014-Apr-17 13:06 273 4 gusting 9 26.7
2014-Apr-17 13:02 237 3 gusting 6 26.1
2014-Apr-17 12:57 239 4 gusting 7 26.1
2014-Apr-17 12:51 233 1 gusting 8 26.1
2014-Apr-17 12:46 250 4 gusting 8 26.1
2014-Apr-17 12:41 233 2 gusting 6 26.1
2014-Apr-17 12:36 261 2 gusting 4 25.6
2014-Apr-17 12:32 301 0 gusting 6 25.0
2014-Apr-17 12:26 292 3 gusting 8 25.6
2014-Apr-17 12:21 242 5 gusting 8 25.6
2014-Apr-17 12:17 175 3 gusting 6 25.0
2014-Apr-17 12:11 319 1 gusting 5 24.4
2014-Apr-17 12:06 056 2 gusting 5 24.4
2014-Apr-17 12:02 265 1 gusting 4 24.4
2014-Apr-17 11:56 224 2 gusting 4 24.4
2014-Apr-17 11:51 327 1 gusting 4 24.4
2014-Apr-17 11:47 274 0 gusting 5 24.4
2014-Apr-17 11:41 300 2 gusting 7 23.9
2014-Apr-17 11:36 272 5 gusting 7 23.9
2014-Apr-17 11:31 262 1 gusting 5 23.9
2014-Apr-17 11:26 248 3 gusting 5 23.9
2014-Apr-17 11:21 017 0 gusting 3 23.9
2014-Apr-17 11:17 305 1 gusting 3 23.9
2014-Apr-17 11:12 318 1 gusting 3 23.9
2014-Apr-17 11:07 267 1 gusting 2 23.9
2014-Apr-17 11:02 005 0 gusting 2 23.3
2014-Apr-17 10:56 005 0 gusting 3 23.3
2014-Apr-17 10:51 005 0 gusting 3 22.8
2014-Apr-17 10:46 263 0 gusting 2 22.8
2014-Apr-17 10:41 263 0 gusting 2 22.2
2014-Apr-17 10:36 263 1 gusting 2 22.2
2014-Apr-17 10:31 213 21.7
2014-Apr-17 10:26 213 0 gusting 3 21.7
2014-Apr-17 10:21 194 0 gusting 2 21.1
2014-Apr-17 10:16 175 0 gusting 2 21.1
2014-Apr-17 10:12 175 0 gusting 2 21.1
2014-Apr-17 10:06 175 1 gusting 3 20.6
2014-Apr-17 10:02 173 1 gusting 3 20.6
2014-Apr-17 09:57 109 0 gusting 2 20.0
2014-Apr-17 09:51 109 0 gusting 1 20.0
2014-Apr-17 09:46 109 19.4
2014-Apr-17 09:41 109 0 gusting 1 18.9
2014-Apr-17 09:37 109 0 gusting 1 18.9
2014-Apr-17 09:31 109 0 gusting 1 18.3
2014-Apr-17 09:26 109 0 gusting 2 18.3
2014-Apr-17 09:22 109 0 gusting 2 17.8
2014-Apr-17 09:16 108 17.8
2014-Apr-17 09:11 108 0 gusting 1 17.8
2014-Apr-17 09:06 108 0 gusting 1 17.8
2014-Apr-17 09:01 108 17.2
2014-Apr-17 08:56 108 16.7
2014-Apr-17 08:52 108 15.6
2014-Apr-17 08:46 108 15.0
2014-Apr-17 08:41 108 15.0
2014-Apr-17 08:36 108 14.4
2014-Apr-17 08:31 108 0 gusting 1 13.9
2014-Apr-17 08:26 108 13.3
2014-Apr-17 08:22 108 12.8
2014-Apr-17 08:16 108 12.8
2014-Apr-17 08:11 108 12.2
2014-Apr-17 08:07 108 11.7
2014-Apr-17 08:01 108 11.7
2014-Apr-17 07:56 108 11.7
2014-Apr-17 07:52 108 11.1
2014-Apr-17 07:46 108 11.1
2014-Apr-17 07:41 108 0 gusting 1 10.6
2014-Apr-17 07:36 108 0 gusting 1 10.6
2014-Apr-17 07:32 108 10.6
2014-Apr-17 07:26 108 0 gusting 1 10.6
2014-Apr-17 07:21 108 0 gusting 1 10.0
2014-Apr-17 07:16 108 9.4
2014-Apr-17 07:12 108 0 gusting 0 8.9
2014-Apr-17 07:07 108 8.3
2014-Apr-17 07:02 108 8.3
2014-Apr-17 06:56 108 8.3
2014-Apr-17 06:52 108 8.3
2014-Apr-17 06:46 108 0 gusting 1 7.8
2014-Apr-17 06:42 108 0 gusting 1 7.8
2014-Apr-17 06:36 108 0 gusting 1 7.8
2014-Apr-17 06:31 108 0 gusting 1 7.8
2014-Apr-17 06:26 108 7.2
2014-Apr-17 06:22 108 7.2
2014-Apr-17 06:16 108 7.2
2014-Apr-17 06:11 108 7.2
2014-Apr-17 06:07 108 7.2
2014-Apr-17 06:01 108 7.2
2014-Apr-17 05:56 108 0 gusting 1 7.2
2014-Apr-17 05:51 108 7.2
2014-Apr-17 05:46 108 7.2
2014-Apr-17 05:41 108 7.2
2014-Apr-17 05:36 108 7.2
2014-Apr-17 05:31 108 7.2
2014-Apr-17 05:27 108 7.2
2014-Apr-17 05:22 108 7.2
2014-Apr-17 05:16 108 0 gusting 1 7.2
2014-Apr-17 05:11 108 7.2
2014-Apr-17 05:06 108 0 gusting 0 7.2
2014-Apr-17 05:02 108 7.8
2014-Apr-17 04:57 108 7.8
2014-Apr-17 04:51 108 7.8
2014-Apr-17 04:46 108 7.8
2014-Apr-17 04:41 108 7.8
2014-Apr-17 04:37 108 0 gusting 0 7.8
2014-Apr-17 04:31 108 7.8
2014-Apr-17 04:26 108 7.8
2014-Apr-17 04:21 108 7.8
2014-Apr-17 04:16 108 7.8
2014-Apr-17 04:11 108 0 gusting 1 7.8
2014-Apr-17 04:06 108 7.8
2014-Apr-17 04:02 108 7.8
2014-Apr-17 03:57 108 8.3
2014-Apr-17 03:51 108 8.3
2014-Apr-17 03:46 108 8.3
2014-Apr-17 03:42 108 8.3
2014-Apr-17 03:36 108 8.3
2014-Apr-17 03:32 108 8.3
2014-Apr-17 03:27 108 8.3
2014-Apr-17 03:21 108 0 gusting 1 8.3
2014-Apr-17 03:16 108 0 gusting 1 8.9
2014-Apr-17 03:11 108 8.9
2014-Apr-17 03:06 108 8.9
2014-Apr-17 03:02 108 8.9
2014-Apr-17 02:57 108 0 gusting 1 8.9
2014-Apr-17 02:52 108 8.9
2014-Apr-17 02:46 108 0 gusting 1 8.9
2014-Apr-17 02:41 108 8.9
2014-Apr-17 02:37 108 9.4
2014-Apr-17 02:31 108 9.4
2014-Apr-17 02:26 108 9.4
2014-Apr-17 02:22 108 9.4
2014-Apr-17 02:16 108 9.4
2014-Apr-17 02:11 108 9.4
2014-Apr-17 02:06 108 9.4
2014-Apr-17 02:01 108 9.4